timestamp,surface_pressure_avg,surface_temp_avg,battery_voltage,lat,long
2024-02-29 00:09:00+00:00,277.3698,0.7,11.46,47.84626,-54.09684
2024-02-29 00:19:00+00:00,279.273,0.7,11.46,47.84626,-54.09684
2024-02-29 00:29:00+00:00,280.538,0.69,11.46,47.84626,-54.09684
2024-02-29 00:39:00+00:00,291.3397,0.7,11.46,47.84626,-54.09684
2024-02-29 00:49:00+00:00,300.9396,0.7,11.46,47.84626,-54.09684
2024-02-29 00:59:00+00:00,301.3497,0.7,11.46,47.84626,-54.09684
2024-02-29 01:09:00+00:00,304.7247,0.7,11.46,47.84626,-54.09684
2024-02-29 01:19:00+00:00,313.1713,0.7,11.46,47.84626,-54.09684
2024-02-29 01:29:00+00:00,315.2214,0.7,11.46,47.84626,-54.09684
2024-02-29 01:39:00+00:00,312.8331,0.7,11.46,47.84626,-54.09684
2024-02-29 01:49:00+00:00,316.2029,0.7,11.46,47.84626,-54.09684
2024-02-29 01:59:00+00:00,321.4463,0.7,11.46,47.84626,-54.09684
2024-02-29 02:09:00+00:00,320.0513,0.7,11.46,47.84626,-54.09684
2024-02-29 02:19:01+00:00,316.8614,0.7,11.46,47.84626,-54.09684
2024-02-29 02:29:01+00:00,317.1413,0.7,11.46,47.84626,-54.09684
2024-02-29 02:39:01+00:00,315.8263,0.7,11.46,47.84626,-54.09684
2024-02-29 02:49:01+00:00,314.5547,0.7,11.46,47.84626,-54.09684
2024-02-29 02:59:01+00:00,312.9979,0.7,11.46,47.84626,-54.09684
2024-02-29 03:09:01+00:00,311.653,0.7,11.46,47.84626,-54.09684
2024-02-29 03:19:00+00:00,308.1897,0.7,11.46,47.84626,-54.09684
2024-02-29 03:29:00+00:00,302.728,0.7,11.46,47.84626,-54.09684
2024-02-29 03:39:00+00:00,299.3164,0.7,11.46,47.84626,-54.09684
2024-02-29 03:49:00+00:00,301.0897,0.7,11.46,47.84626,-54.09684
2024-02-29 03:59:00+00:00,299.508,0.7,11.46,47.84626,-54.09684
2024-02-29 04:09:00+00:00,297.173,0.7,11.46,47.84626,-54.09684
2024-02-29 04:19:00+00:00,290.6831,0.7,11.46,47.84626,-54.09684
2024-02-29 04:29:00+00:00,288.513,0.7,11.46,47.84626,-54.09684
2024-02-29 04:39:00+00:00,287.8781,0.7,11.46,47.84626,-54.09684
2024-02-29 04:49:00+00:00,282.0464,0.7,11.46,47.84626,-54.09684
2024-02-29 04:59:00+00:00,274.6614,0.7,11.46,47.84626,-54.09684
2024-02-29 05:09:00+00:00,273.6213,0.7,11.46,47.84626,-54.09684
2024-02-29 05:19:00+00:00,270.5031,0.7,11.46,47.84626,-54.09684
2024-02-29 05:29:00+00:00,258.9031,0.7,11.46,47.84626,-54.09684
2024-02-29 05:39:00+00:00,251.1997,0.7,11.46,47.84626,-54.09684
2024-02-29 05:49:00+00:00,250.1348,0.7,11.46,47.84626,-54.09684
2024-02-29 05:59:00+00:00,238.4748,0.7,11.46,47.84626,-54.09684
2024-02-29 06:09:00+00:00,223.1097,0.7,11.46,47.84626,-54.09684
2024-02-29 06:19:00+00:00,220.0031,0.7,11.46,47.84626,-54.09684
2024-02-29 06:29:00+00:00,214.8281,0.7,11.46,47.84626,-54.09684
2024-02-29 06:39:00+00:00,204.1564,0.7,11.46,47.84626,-54.09684
2024-02-29 06:49:00+00:00,197.8815,0.7,11.46,47.84626,-54.09684
2024-02-29 06:59:00+00:00,198.1165,0.7,11.46,47.84626,-54.09684
2024-02-29 07:09:00+00:00,191.9881,0.7,11.46,47.84626,-54.09684
2024-02-29 07:19:00+00:00,182.3297,0.69,11.46,47.84626,-54.09684
2024-02-29 07:29:00+00:00,178.5948,0.69,11.46,47.84626,-54.09684
2024-02-29 07:39:00+00:00,178.3181,0.7,11.46,47.84626,-54.09684
2024-02-29 07:49:00+00:00,176.2048,0.7,11.46,47.84626,-54.09684
2024-02-29 07:59:00+00:00,172.8632,0.7,11.46,47.84626,-54.09684
2024-02-29 08:09:00+00:00,175.7565,0.7,11.46,47.84626,-54.09684
2024-02-29 08:19:01+00:00,178.5365,0.7,11.46,47.84626,-54.09684
2024-02-29 08:29:01+00:00,175.2598,0.69,11.46,47.84626,-54.09684
2024-02-29 08:39:01+00:00,175.3431,0.67,11.46,47.84626,-54.09684
2024-02-29 08:49:01+00:00,181.4048,0.67,11.46,47.84626,-54.09684
2024-02-29 08:59:01+00:00,183.6132,0.68,11.46,47.84626,-54.09684
2024-02-29 09:09:01+00:00,181.5132,0.68,11.46,47.84626,-54.09684
2024-02-29 09:19:00+00:00,185.8098,0.67,11.46,47.84626,-54.09684
2024-02-29 09:29:00+00:00,193.1415,0.67,11.46,47.84626,-54.09684
2024-02-29 09:39:00+00:00,194.4648,0.65,11.46,47.84626,-54.09684
2024-02-29 09:49:00+00:00,199.4415,0.66,11.46,47.84626,-54.09684
2024-02-29 09:59:00+00:00,210.6248,0.66,11.46,47.84626,-54.09684
2024-02-29 10:09:00+00:00,217.8431,0.67,11.46,47.84626,-54.09684
2024-02-29 10:19:00+00:00,218.6098,0.68,11.46,47.84626,-54.09684
2024-02-29 10:29:00+00:00,220.4881,0.69,11.46,47.84626,-54.09684
2024-02-29 10:39:00+00:00,229.063,0.7,11.46,47.84626,-54.09684
2024-02-29 10:49:00+00:00,236.9681,0.7,11.46,47.84626,-54.09684
2024-02-29 10:59:00+00:00,237.6464,0.7,11.46,47.84626,-54.09684
2024-02-29 11:09:00+00:00,238.5181,0.69,11.46,47.84626,-54.09684
2024-02-29 11:19:00+00:00,243.8464,0.68,11.46,47.84626,-54.09684
2024-02-29 11:29:00+00:00,247.4864,0.7,11.46,47.84626,-54.09684
2024-02-29 11:39:00+00:00,246.4481,0.7,11.46,47.84626,-54.09684
2024-02-29 11:49:00+00:00,253.2381,0.7,11.46,47.84626,-54.09684
2024-02-29 11:59:00+00:00,266.2781,0.7,11.46,47.84626,-54.09684
2024-02-29 12:09:00+00:00,271.6481,0.69,11.46,47.84626,-54.09684
2024-02-29 12:19:00+00:00,268.4847,0.69,11.46,47.84626,-54.09684
2024-02-29 12:29:00+00:00,274.1115,0.7,11.46,47.84626,-54.09684
2024-02-29 12:39:00+00:00,284.8014,0.67,11.46,47.84626,-54.09684
2024-02-29 12:49:00+00:00,288.2614,0.68,11.46,47.84626,-54.09684
2024-02-29 12:59:00+00:00,283.363,0.7,11.46,47.84626,-54.09684
2024-02-29 13:09:00+00:00,291.0847,0.7,11.46,47.84626,-54.09684
2024-02-29 13:19:00+00:00,299.693,0.7,11.46,47.84626,-54.09684
2024-02-29 13:29:00+00:00,300.563,0.71,11.46,47.84626,-54.09684
2024-02-29 13:39:00+00:00,301.2047,0.8,11.46,47.84626,-54.09684
2024-02-29 13:49:00+00:00,312.3813,0.7,11.46,47.84626,-54.09684
2024-02-29 13:59:00+00:00,315.0729,0.7,11.46,47.84626,-54.09684
2024-02-29 14:09:00+00:00,313.858,0.7,11.46,47.84626,-54.09684
2024-02-29 14:19:01+00:00,318.7147,0.7,11.46,47.84626,-54.09684
2024-02-29 14:29:01+00:00,328.61800000000005,0.7,11.46,47.84626,-54.09684
2024-02-29 14:39:01+00:00,328.0314,0.7,11.46,47.84626,-54.09684
2024-02-29 14:49:01+00:00,324.658,0.7,11.46,47.84626,-54.09684
2024-02-29 14:59:01+00:00,325.8497,0.7,11.46,47.84626,-54.09684
2024-02-29 15:09:01+00:00,326.6513,0.7,11.46,47.84626,-54.09684
2024-02-29 15:19:01+00:00,320.408,0.7,11.46,47.84626,-54.09684
2024-02-29 15:29:01+00:00,312.1497,0.7,11.46,47.84626,-54.09684
2024-02-29 15:39:01+00:00,314.7646,0.8,11.46,47.84626,-54.09684
2024-02-29 15:49:01+00:00,312.2881,0.83,11.46,47.84626,-54.09684
2024-02-29 15:59:01+00:00,304.0197,0.9,11.46,47.84626,-54.09684
2024-02-29 16:09:01+00:00,298.4697,0.9,11.46,47.84626,-54.09684
2024-02-29 16:19:00+00:00,299.7164,0.8,11.46,47.84626,-54.09684
2024-02-29 16:29:00+00:00,300.8297,0.84,11.46,47.84626,-54.09684
2024-02-29 16:39:00+00:00,296.2146,0.89,11.46,47.84626,-54.09684
2024-02-29 16:49:00+00:00,291.1747,0.8,11.46,47.84626,-54.09684
2024-02-29 16:59:00+00:00,296.6547,0.8,11.46,47.84626,-54.09684
2024-02-29 17:09:00+00:00,296.6314,0.79,11.46,47.84626,-54.09684
2024-02-29 17:19:00+00:00,282.9814,0.79,11.46,47.84626,-54.09684
2024-02-29 17:29:00+00:00,272.4114,0.79,11.46,47.84626,-54.09684
2024-02-29 17:39:00+00:00,271.1747,0.78,11.46,47.84626,-54.09684
2024-02-29 17:49:00+00:00,262.6247,0.78,11.46,47.84626,-54.09684
2024-02-29 17:59:00+00:00,247.6097,0.8,11.46,47.84626,-54.09684
2024-02-29 18:09:00+00:00,242.2997,0.8,11.46,47.84626,-54.09684
2024-02-29 18:19:00+00:00,239.3148,0.8,11.46,47.84626,-54.09684
2024-02-29 18:29:00+00:00,230.4214,0.8,11.46,47.84626,-54.09684
2024-02-29 18:39:00+00:00,220.2647,0.8,11.46,47.84626,-54.09684
2024-02-29 18:49:00+00:00,215.8981,0.8,11.46,47.84626,-54.09684
2024-02-29 18:59:00+00:00,210.9648,0.8,11.46,47.84626,-54.09684
2024-02-29 19:09:00+00:00,201.5831,0.8,11.46,47.84626,-54.09684
2024-02-29 19:19:00+00:00,192.0965,0.79,11.46,47.84626,-54.09684
2024-02-29 19:29:00+00:00,187.6164,0.79,11.46,47.84626,-54.09684
2024-02-29 19:39:00+00:00,185.6715,0.8,11.46,47.84626,-54.09684
2024-02-29 19:49:00+00:00,182.2982,0.8,11.46,47.84626,-54.09684
2024-02-29 19:59:00+00:00,178.4865,0.89,11.46,47.84626,-54.09684
2024-02-29 20:09:00+00:00,181.6031,1.1,11.46,47.84626,-54.09684
2024-02-29 20:19:00+00:00,184.9081,1.0,11.46,47.84626,-54.09684
2024-02-29 20:29:00+00:00,184.5881,1.0,11.46,47.84626,-54.09684
2024-02-29 20:39:00+00:00,185.9631,1.1,11.46,47.84626,-54.09684
2024-02-29 20:49:00+00:00,187.4481,1.0,11.46,47.84626,-54.09684
2024-02-29 20:59:00+00:00,191.0497,0.9,11.46,47.84626,-54.09684
2024-02-29 21:09:00+00:00,195.5048,0.9,11.46,47.84626,-54.09684
2024-02-29 21:19:00+00:00,199.2481,0.87,11.46,47.84626,-54.09684
2024-02-29 21:29:00+00:00,205.9314,0.85,11.46,47.84626,-54.09684
2024-02-29 21:39:00+00:00,212.8898,0.87,11.46,47.84626,-54.09684
2024-02-29 21:49:00+00:00,216.6581,0.88,11.46,47.84626,-54.09684
2024-02-29 21:59:00+00:00,221.5081,0.8,11.46,47.84626,-54.09684
2024-02-29 22:09:00+00:00,229.6148,0.8,11.46,47.84626,-54.09684
2024-02-29 22:19:00+00:00,234.2981,0.8,11.46,47.84626,-54.09684
2024-02-29 22:29:00+00:00,235.0164,0.79,11.46,47.84626,-54.09684
2024-02-29 22:39:00+00:00,238.3397,0.78,11.46,47.84626,-54.09684
2024-02-29 22:49:00+00:00,244.3648,0.76,11.46,47.84626,-54.09684
2024-02-29 22:59:00+00:00,243.7281,0.74,11.46,47.84626,-54.09684
2024-02-29 23:09:00+00:00,243.8731,0.73,11.46,47.84626,-54.09684
2024-02-29 23:19:00+00:00,250.8564,0.72,11.46,47.84626,-54.09684
2024-02-29 23:29:00+00:00,260.4948,0.7,11.46,47.84626,-54.09684
2024-02-29 23:39:00+00:00,259.4097,0.71,11.46,47.84626,-54.09684
2024-02-29 23:49:00+00:00,262.2281,0.7,11.46,47.84626,-54.09684
2024-02-29 23:59:00+00:00,274.2164,0.7,11.46,47.84626,-54.09684
